TimeMDT,TemperatureF,Dew PointF,Humidity,Sea Level PressureIn,VisibilityMPH,Wind Direction,Wind SpeedMPH,Gust SpeedMPH,PrecipitationIn,Events,Conditions,WindDirDegrees,DateUTC
12:15 AM,50.7,19.9,30,29.91,10.0,SSE,4.6,-,N/A,,Clear,160,2013-03-21 06:15:00
12:35 AM,54.3,20.3,26,29.91,10.0,South,5.8,-,N/A,,Clear,180,2013-03-21 06:35:00
12:55 AM,50.2,19.0,29,29.90,10.0,South,4.6,-,N/A,,Clear,190,2013-03-21 06:55:00
1:15 AM,51.4,19.2,28,29.89,10.0,SE,3.5,-,N/A,,Clear,140,2013-03-21 07:15:00
1:35 AM,52.7,18.9,26,29.90,10.0,Calm,Calm,-,N/A,,Clear,0,2013-03-21 07:35:00
1:55 AM,51.1,18.9,28,29.89,10.0,South,4.6,-,N/A,,Clear,190,2013-03-21 07:55:00
2:15 AM,52.9,19.4,27,29.89,10.0,SSE,3.5,-,N/A,,Clear,160,2013-03-21 08:15:00
2:35 AM,51.8,19.4,28,29.88,10.0,Calm,Calm,-,N/A,,Clear,0,2013-03-21 08:35:00
2:55 AM,51.4,19.4,28,29.87,10.0,Calm,Calm,-,N/A,,Clear,0,2013-03-21 08:55:00
3:15 AM,50.4,19.0,29,29.86,10.0,Calm,Calm,-,N/A,,Clear,0,2013-03-21 09:15:00
3:35 AM,49.3,18.5,30,29.86,10.0,Calm,Calm,-,N/A,,Clear,0,2013-03-21 09:35:00
3:55 AM,48.0,18.3,31,29.85,10.0,South,3.5,-,N/A,,Clear,170,2013-03-21 09:55:00
4:15 AM,50.2,19.2,29,29.85,10.0,SE,5.8,-,N/A,,Clear,130,2013-03-21 10:15:00
4:35 AM,51.8,19.2,28,29.83,10.0,SE,4.6,-,N/A,,Clear,130,2013-03-21 10:35:00
4:55 AM,48.9,18.7,30,29.82,10.0,Calm,Calm,-,N/A,,Clear,0,2013-03-21 10:55:00
5:15 AM,47.8,18.7,31,29.82,10.0,Calm,Calm,-,N/A,,Clear,0,2013-03-21 11:15:00
5:35 AM,45.0,18.0,34,29.82,10.0,WSW,4.6,-,N/A,,Clear,250,2013-03-21 11:35:00
5:55 AM,46.4,18.5,33,29.82,10.0,WSW,5.8,-,N/A,,Clear,240,2013-03-21 11:55:00
6:15 AM,46.4,18.5,33,29.82,10.0,Calm,Calm,-,N/A,,Clear,0,2013-03-21 12:15:00
6:35 AM,45.3,18.5,34,29.83,10.0,Calm,Calm,-,N/A,,Clear,0,2013-03-21 12:35:00
6:55 AM,45.7,18.7,34,29.83,10.0,SW,4.6,-,N/A,,Clear,230,2013-03-21 12:55:00
7:15 AM,44.6,18.9,36,29.84,10.0,SSW,5.8,-,N/A,,Clear,200,2013-03-21 13:15:00
7:35 AM,46.6,19.4,34,29.84,10.0,Calm,Calm,-,N/A,,Clear,0,2013-03-21 13:35:00
7:55 AM,49.1,19.8,31,29.84,10.0,SE,9.2,-,N/A,,Clear,130,2013-03-21 13:55:00
8:15 AM,49.3,19.8,31,29.83,10.0,South,6.9,-,N/A,,Clear,170,2013-03-21 14:15:00
8:35 AM,51.6,20.7,30,29.84,10.0,SW,8.1,-,N/A,,Clear,220,2013-03-21 14:35:00
8:55 AM,52.7,21.2,29,29.83,10.0,SSW,6.9,-,N/A,,Clear,200,2013-03-21 14:55:00
9:15 AM,56.5,21.9,26,29.83,10.0,SSW,6.9,-,N/A,,Clear,200,2013-03-21 15:15:00
9:35 AM,58.8,22.8,25,29.82,10.0,ESE,4.6,-,N/A,,Clear,120,2013-03-21 15:35:00
9:55 AM,64.9,25.3,22,29.82,10.0,WNW,16.1,33.4,N/A,,Clear,300,2013-03-21 15:55:00
10:15 AM,64.4,24.8,22,29.81,10.0,WNW,20.7,33.4,N/A,,Clear,290,2013-03-21 16:15:00
10:35 AM,64.9,23.5,21,29.80,10.0,WNW,19.6,35.7,N/A,,Clear,300,2013-03-21 16:35:00
10:55 AM,68.9,22.8,18,29.78,10.0,WNW,23.0,34.5,N/A,,Clear,300,2013-03-21 16:55:00
11:15 AM,69.3,21.6,16,29.78,10.0,West,19.6,32.2,N/A,,Clear,280,2013-03-21 17:15:00
11:35 AM,70.0,21.4,16,29.78,10.0,West,15.0,29.9,N/A,,Clear,280,2013-03-21 17:35:00
11:55 AM,70.0,21.0,16,29.77,10.0,WNW,19.6,28.8,N/A,,Clear,300,2013-03-21 17:55:00
12:15 PM,70.7,20.5,15,29.77,10.0,WNW,15.0,31.1,N/A,,Clear,290,2013-03-21 18:15:00
12:35 PM,71.4,20.5,15,29.76,10.0,WNW,12.7,25.3,N/A,,Clear,300,2013-03-21 18:35:00
12:55 PM,73.6,19.8,13,29.75,10.0,NW,16.1,29.9,N/A,,Clear,320,2013-03-21 18:55:00
1:15 PM,75.4,18.5,12,29.74,10.0,NW,15.0,27.6,N/A,,Clear,320,2013-03-21 19:15:00
1:35 PM,77.0,16.7,10,29.72,10.0,WNW,19.6,28.8,N/A,,Clear,300,2013-03-21 19:35:00
1:55 PM,77.0,15.3,10,29.70,10.0,WNW,24.2,33.4,N/A,,Clear,290,2013-03-21 19:55:00
2:15 PM,77.7,12.9,9,29.68,10.0,WNW,24.2,39.1,N/A,,Clear,300,2013-03-21 20:15:00
2:35 PM,77.7,10.6,8,29.68,10.0,West,23.0,38.0,N/A,,Clear,280,2013-03-21 20:35:00
2:55 PM,77.7,7.3,7,29.68,10.0,WNW,26.5,42.6,N/A,,Clear,300,2013-03-21 20:55:00
3:15 PM,77.9,7.7,7,29.67,10.0,NW,24.2,40.3,N/A,,Clear,310,2013-03-21 21:15:00
3:35 PM,77.9,8.2,7,29.67,10.0,WNW,27.6,35.7,N/A,,Clear,300,2013-03-21 21:35:00
3:55 PM,77.7,7.3,7,29.67,10.0,WNW,21.9,34.5,N/A,,Clear,290,2013-03-21 21:55:00
4:15 PM,77.0,6.6,7,29.67,10.0,WNW,21.9,35.7,N/A,,Clear,300,2013-03-21 22:15:00
4:35 PM,76.8,7.7,7,29.68,10.0,WNW,20.7,31.1,N/A,,Clear,300,2013-03-21 22:35:00
4:55 PM,76.1,6.6,7,29.69,10.0,WNW,23.0,34.5,N/A,,Clear,300,2013-03-21 22:55:00
5:15 PM,75.2,5.4,7,29.68,10.0,WNW,21.9,33.4,N/A,,Clear,300,2013-03-21 23:15:00
5:35 PM,75.6,3.7,6,29.69,10.0,NW,25.3,33.4,N/A,,Clear,310,2013-03-21 23:35:00
5:55 PM,73.4,3.6,7,29.70,10.0,WNW,21.9,28.8,N/A,,Clear,300,2013-03-21 23:55:00
6:15 PM,73.4,2.5,6,29.71,10.0,WNW,23.0,27.6,N/A,,Clear,300,2013-03-22 00:15:00
6:35 PM,71.2,2.1,7,29.71,10.0,NW,13.8,31.1,N/A,,Clear,310,2013-03-22 00:35:00
6:55 PM,69.8,1.0,7,29.72,10.0,WNW,19.6,25.3,N/A,,Clear,290,2013-03-22 00:55:00
7:15 PM,68.7,1.8,7,29.73,10.0,NW,13.8,-,N/A,,Clear,310,2013-03-22 01:15:00
7:35 PM,67.5,-0.0,7,29.73,10.0,WNW,11.5,-,N/A,,Clear,290,2013-03-22 01:35:00
7:55 PM,67.8,0.3,7,29.74,10.0,NW,15.0,25.3,N/A,,Clear,310,2013-03-22 01:55:00
8:15 PM,66.4,0.1,7,29.73,10.0,NW,13.8,19.6,N/A,,Clear,320,2013-03-22 02:15:00
8:35 PM,66.0,0.3,7,29.73,10.0,NW,10.4,17.3,N/A,,Clear,320,2013-03-22 02:35:00
8:55 PM,64.2,0.5,8,29.74,10.0,WNW,9.2,-,N/A,,Clear,300,2013-03-22 02:55:00
9:15 PM,62.6,0.9,8,29.75,10.0,WNW,9.2,-,N/A,,Clear,300,2013-03-22 03:15:00
9:35 PM,62.4,0.5,8,29.75,10.0,WNW,9.2,-,N/A,,Clear,290,2013-03-22 03:35:00
9:55 PM,60.8,0.5,9,29.76,10.0,West,9.2,-,N/A,,Clear,280,2013-03-22 03:55:00
10:15 PM,59.9,0.7,9,29.77,10.0,West,9.2,-,N/A,,Clear,280,2013-03-22 04:15:00
10:35 PM,60.1,1.4,9,29.77,10.0,West,10.4,-,N/A,,Clear,280,2013-03-22 04:35:00
10:55 PM,59.5,1.4,10,29.79,10.0,West,6.9,-,N/A,,Clear,270,2013-03-22 04:55:00
11:15 PM,60.3,2.5,10,29.78,10.0,WNW,3.5,-,N/A,,Clear,300,2013-03-22 05:15:00
11:35 PM,54.7,1.9,12,29.79,10.0,SSE,4.6,-,N/A,,Clear,150,2013-03-22 05:35:00
11:55 PM,54.9,2.1,12,29.79,10.0,SSE,5.8,-,N/A,,Clear,160,2013-03-22 05:55:00